Ellensburg, WA

2:22 PM PST on February 23, 2017 (GMT -0800)
Bowers

Weather History for KELN - February, 2013

Change the Weather History Date:

Sunday, February 3, 2013

  Actual Average (KYKM) Record (KYKM)
Temperature  
Mean Temperature 36 °F -  
Max Temperature 46 °F 40 °F 61 °F (1962)
Min Temperature 27 °F 24 °F -23 °F (1950)
Degree Days  
Heating Degree Days 28    
Moisture  
Dew Point 29 °F    
Average Humidity 73    
Maximum Humidity 89    
Minimum Humidity 56    
Precipitation  
Precipitation 0.00 in - - ()
Sea Level Pressure  
Sea Level Pressure 30.19 in    
Wind  
Wind Speed 6 mph (NW)    
Max Wind Speed 26 mph    
Max Gust Speed 32 mph    
Visibility 8 miles    
Events      
Averages and records for this station are not official NWS values.
T = Trace of Precipitation, MM = Missing Value Source: NWS Daily Summary

Daily Weather History Graph

Daily Weather History Graph

Search for Another Location

Airport or City:

Trip Planner

Search our weather history database for the weather conditions in past years. The results will help you decide how hot, cold, wet, or windy it might be!

Date:

Astronomy

Feb. 03, 2013 Rise Set
Actual Time 7:24 AM PST 5:08 PM PST
Civil Twilight 6:51 AM PST 5:40 PM PST
Nautical Twilight 6:15 AM PST 6:17 PM PST
Astronomical Twilight 5:39 AM PST 6:52 PM PST
Moon 12:59 AM PST (2/3) 10:46 AM PST (2/3)
Length of Visible Light 10h 49m
Length of Day
9h 44m
Waning Gibbous, 47% of the Moon is Illuminated
Feb 3
Waning Gibbous
Feb 9
New
Feb 17
First Quarter
Feb 25
Full
Mar 4
Last Quarter

Hourly Weather History & Observations

Time (PST) Temp. Windchill Dew Point Humidity Pressure Visibility Wind Dir Wind Speed Gust Speed Precip Events Conditions
12:53 AM 28.0 °F - 24.1 °F 85% 30.25 in 6.0 mi Calm Calm - N/A   Clear
1:53 AM 27.0 °F - 23.0 °F 85% 30.26 in 6.0 mi Calm Calm - N/A   Clear
2:53 AM 28.0 °F 24.2 °F 23.0 °F 81% 30.24 in 6.0 mi East 3.5 mph - N/A   Haze
3:53 AM 28.9 °F 25.2 °F 25.0 °F 85% 30.22 in 7.0 mi NE 3.5 mph - N/A   Clear
4:16 AM 28.4 °F - 24.8 °F 86% 30.18 in 6.0 mi Calm Calm - N/A   Partly Cloudy
4:53 AM 28.9 °F - 25.0 °F 85% 30.22 in 6.0 mi Calm Calm - N/A   Clear
5:53 AM 30.9 °F - 26.1 °F 82% 30.23 in 7.0 mi Calm Calm - N/A   Clear
6:53 AM 30.9 °F - 26.1 °F 82% 30.23 in 8.0 mi Calm Calm - N/A   Clear
7:53 AM 30.0 °F - 26.1 °F 85% 30.25 in 6.0 mi Calm Calm - N/A   Clear
8:38 AM 30.2 °F 23.4 °F 26.6 °F 86% 30.19 in 3.0 mi SE 6.9 mph - N/A   Partly Cloudy
8:46 AM 30.2 °F 24.3 °F 26.6 °F 86% 30.19 in 2.5 mi SE 5.8 mph - N/A   Clear
8:53 AM 30.9 °F 26.2 °F 28.0 °F 89% 30.24 in 3.0 mi SSW 4.6 mph - N/A   Clear
9:53 AM 35.1 °F 29.3 °F 30.0 °F 82% 30.23 in 7.0 mi SE 6.9 mph - N/A   Clear
10:53 AM 45.0 °F 38.5 °F 35.1 °F 68% 30.21 in 10.0 mi NW 13.8 mph - N/A   Clear
11:53 AM 46.9 °F - 33.1 °F 59% 30.19 in 10.0 mi NW 19.6 mph 27.6 mph N/A   Clear
12:53 PM 46.9 °F - 32.0 °F 56% 30.17 in 10.0 mi NW 16.1 mph 21.9 mph N/A   Clear
1:53 PM 46.9 °F - 32.0 °F 56% 30.16 in 10.0 mi NW 18.4 mph 24.2 mph N/A   Clear
2:53 PM 46.9 °F - 32.0 °F 56% 30.14 in 10.0 mi NW 20.7 mph 27.6 mph N/A   Clear
3:53 PM 46.0 °F 38.3 °F 32.0 °F 58% 30.16 in 10.0 mi NW 20.7 mph - N/A   Clear
4:53 PM 45.0 °F 36.9 °F 30.9 °F 58% 30.15 in 10.0 mi NW 20.7 mph - N/A   Partly Cloudy
5:53 PM 44.1 °F 35.0 °F 30.9 °F 60% 30.15 in 10.0 mi NW 24.2 mph 32.2 mph N/A   Mostly Cloudy
6:53 PM 44.1 °F 34.6 °F 30.9 °F 60% 30.15 in 10.0 mi WNW 26.5 mph 32.2 mph N/A   Overcast
7:53 PM 44.1 °F 36.2 °F 30.9 °F 60% 30.15 in 10.0 mi WNW 18.4 mph 27.6 mph N/A   Overcast
8:53 PM 42.1 °F 36.1 °F 30.9 °F 65% 30.15 in 10.0 mi WNW 10.4 mph - N/A   Partly Cloudy
9:53 PM 39.9 °F 34.5 °F 30.9 °F 70% 30.15 in 10.0 mi NW 8.1 mph - N/A   Clear
10:53 PM 39.9 °F 32.1 °F 32.0 °F 73% 30.13 in 10.0 mi NW 13.8 mph - N/A   Partly Cloudy
11:53 PM 41.0 °F 36.4 °F 32.0 °F 70% 30.13 in 10.0 mi WNW 6.9 mph - N/A   Scattered Clouds